Regional Weather Roundup
Issued by NWS

Home | Current Version | Previous Version | Graphics & Text | Print | Product List | Glossary On
Versions: 1 2 3 4 5 6 7 8 9 10 11 12 13 14 15 16 17 18 19 20 21 22 23 24 25 26 27 28 29 30 31 32 33 34 35 36 37 38 39 40 41 42 43 44 45 46 47 48 49 50
000
ASUS43 KIND 271700
RWRIN

WEATHER ROUNDUP FOR INDIANA
NATIONAL WEATHER SERVICE INDIANAPOLIS IN
100 PM EDT THU JUL 27 2017

NOTE: "FAIR" INDICATES FEW OR NO CLOUDS BELOW 12,000 FEET WITH NO
SIGNIFICANT WEATHER AND/OR OBSTRUCTIONS TO VISIBILITY.

* - STATION DOES NOT REPORT WEATHER SUCH AS PRECIPITATION OR FOG.

+ - STATION NOT QUALITY CONTROLLED BY THE NATIONAL WEATHER SERVICE.
    USE DATA WITH CAUTION...ESPECIALLY DEWPOINT AND RELATIVE
    HUMIDITY OBSERVATIONS.

INZ001>003-010>013-019-020-271800-
NORTHWEST INDIANA

CITY           SKY/WX    TMP DP  RH WIND       PRES   REMARKS
GARY /AIRPORT/ CLOUDY    77  73  88 N9        29.95S FOG
MICHIGAN CITY+ MOSUNNY   79  70  73 N8        29.94S
MONTICELLO +   CLOUDY    79  72  79 W7        29.92F
RENSSELAER +   PTSUNNY   79  72  78 W3        29.94S

$$

LMZ046-743>745-271800-
SOUTHERN LAKE MICHIGAN

STATION/POSITION TIME  TEMP    WIND        PRES    WAVE
                       AIR SEA DIR/SP/G            HT
                 (UTC) (F)     (DEG/KT/KT) (MB)    (FT)
BURNS HARBOR     1640   74     360/  6/  7 1014.2S
MICHIGAN CITY    1610   75     340/  6/  6   N/A
5NW MICH CITY    1640   74 75   20/  6/  8   N/A     0

$$

INZ004-005-014>016-021>024-271800-
NORTH CENTRAL INDIANA

CITY           SKY/WX    TMP DP  RH WIND       PRES   REMARKS
ELKHART        MOSUNNY   79  70  73 CALM      29.93S
GOSHEN         CLOUDY    75  70  84 NW5       29.93S HAZE
SOUTH BEND     CLOUDY    79  72  79 CALM      29.93F

$$

INZ006>009-017-018-025>027-271800-
NORTHEAST INDIANA

CITY           SKY/WX    TMP DP  RH WIND       PRES   REMARKS
FORT WAYNE     CLOUDY    74  70  87 W12       29.93F
KENDALLVILLE + RAIN      75  73  92 CALM      29.94S

$$

INZ028-029-035-036-043>045-051>053-271800-
WEST CENTRAL INDIANA

CITY           SKY/WX    TMP DP  RH WIND       PRES   REMARKS
LAFAYETTE      CLOUDY    78  73  84 W8        29.93S
TERRE HAUTE    LGT RAIN  75  70  84 W10       29.96S

$$

INZ030>032-037>040-046>048-054>057-064-065-271800-
CENTRAL INDIANA

CITY           SKY/WX    TMP DP  RH WIND       PRES   REMARKS
ANDERSON       CLOUDY    75  72  88 MISG      29.96
COLUMBUS       PTSUNNY   81  68  65 W12       29.96F
GREENWOOD *+   PTSUNNY  N/A N/A N/A W7        29.96S
INDIANAPOLIS   LGT RAIN  75  72  90 W10       29.94S
-EAGLE CREEK   CLOUDY    78  71  79 W12       29.94S
KOKOMO +       CLOUDY    78  72  81 W7        29.95S
MT COMFORT *+  CLOUDY    75  72  88 W10       29.95F
SHELBYVILLE    CLOUDY    80  71  74 W8        29.94F

$$

INZ033-034-041-042-049-050-058-059-271800-
EAST CENTRAL INDIANA

CITY           SKY/WX    TMP DP  RH WIND       PRES   REMARKS
MUNCIE         CLOUDY    78  71  79 NW7       29.94F
RICHMOND +     RAIN      70  70 100 W10       29.96S

$$

INZ060-061-067>069-081>083-085>088-271800-
SOUTHWEST INDIANA

CITY           SKY/WX    TMP DP  RH WIND       PRES   REMARKS
EVANSVILLE     CLOUDY    80  74  81 CALM      29.97F
HUNTINGBURG *+ CLOUDY    78  74  87 S3        29.98S

$$

INZ062-063-066-070>080-084-089>092-271800-
SOUTH CENTRAL AND SOUTHEAST INDIANA

CITY           SKY/WX    TMP DP  RH WIND       PRES   REMARKS
BLOOMINGTON    CLOUDY    78  71  79 W8        29.97F
MADISON *+     PTSUNNY   82  70  65 W8        29.99F
SEYMOUR +      PTSUNNY   84  72  65 W9        29.96F

$$




USA.gov is the U.S. government's official web portal to all federal, state and local government web resources and services.